Location: Metacom Observatory
(41.7315°N, 71.2698°W)
Time: 04:57:46
(UTC-05:00)

N. Korean satellite - Visible Passes

Search period start: 23 January 2018 00:00
Search period end: 02 February 2018 00:00
Orbit: 458 x 515 km, 97.2° (Epoch: 22 January)

Date Brightness Start Highest point End Pass type
(mag) Time Alt. Az. Time Alt. Az. Time Alt. Az.
23 Jan 9.7 05:38:26 10° NE 05:40:45 17° E 05:43:03 10° SE visible
23 Jan 6.8 17:47:00 10° S 17:50:35 72° W 17:54:06 10° NNW visible
24 Jan 6.6 17:23:27 10° SSE 17:26:56 53° ENE 17:30:23 10° N visible
25 Jan 6.8 06:23:36 10° NNE 06:27:03 70° E 06:30:30 10° S visible
25 Jan 9.6 18:34:24 10° SW 18:36:52 18° W 18:39:19 10° NW visible
26 Jan 8.5 06:00:10 10° NNE 06:03:20 32° E 06:06:29 10° SSE visible
26 Jan 8.4 18:09:49 10° SSW 18:13:05 34° W 18:16:19 10° NNW visible
27 Jan 9.8 05:37:14 10° NE 05:39:31 16° E 05:41:49 10° SE visible
27 Jan 6.8 17:45:49 10° S 17:49:22 74° W 17:52:51 10° NNW visible
28 Jan 6.7 17:22:17 10° SSE 17:25:42 51° ENE 17:29:07 10° N visible
29 Jan 6.9 06:22:20 10° NNE 06:25:48 68° E 06:29:17 10° S visible
29 Jan 9.6 18:33:09 10° SW 18:35:37 18° W 18:38:04 10° NW visible
30 Jan 8.6 05:58:55 10° NNE 06:02:04 31° E 06:05:14 10° SSE visible
30 Jan 8.3 18:08:35 10° SSW 18:11:49 35° W 18:15:03 10° NNW visible
31 Jan 9.8 05:35:59 10° NE 05:38:15 16° E 05:40:32 10° SE visible
31 Jan 6.7 17:44:36 10° S 17:48:05 76° WSW 17:51:34 10° NNW visible
